Weather History for Ypsilanti, MI

Change the Weather History Date:

Saturday, November 2, 2013

  Actual Average Record
Temperature  
Mean Temperature 46 °F -  
Max Temperature 52 °F 59 °F 72 °F (1974)
Min Temperature 37 °F 41 °F 23 °F (2006)
Degree Days  
Heating Degree Days 20    
Moisture  
Dew Point 40 °F    
Average Humidity 77    
Maximum Humidity 87    
Minimum Humidity 61    
Precipitation  
Precipitation 0.13 in - - ()
Sea Level Pressure  
Sea Level Pressure 29.83 in    
Wind  
Wind Speed 8 mph (NW)    
Max Wind Speed 16 mph    
Max Gust Speed 21 mph    
Visibility 9 miles    
Events Rain    
Averages and records for this station are not official NWS values.
T = Trace of Precipitation, MM = Missing Value Source: NWS Daily Summary

Daily Weather History Graph

Daily Weather History Graph

Search for Another Location

Airport:

Trip Planner

Search our weather history database for the weather conditions in past years. The results will help you decide how hot, cold, wet, or windy it might be!

Date:

Astronomy

Nov. 02, 2013 Rise Set
Actual Time 8:08 AM EDT 6:26 PM EDT
Civil Twilight 7:39 AM EDT 6:55 PM EDT
Nautical Twilight 7:06 AM EDT 7:28 PM EDT
Astronomical Twilight 6:33 AM EDT 8:01 PM EDT
Moon 7:04 AM EDT (11/2) 5:57 PM EDT (11/2)
Length of Visible Light 11h 15m
Length of Day
10h 17m
Waning Crescent, 1% of the Moon is Illuminated
Nov 2
Waning Crescent
Nov 3
New
Nov 10
First Quarter
Nov 17
Full
Nov 25
Last Quarter

Hourly Weather History & Observations

Time (EDT) Temp. Windchill Dew Point Humidity Pressure Visibility Wind Dir Wind Speed Gust Speed Precip Events Conditions
12:45 AM 48.2 °F - 41.0 °F 76% 29.67 in 10.0 mi SW 5.8 mph - N/A   Overcast
12:53 AM 48.0 °F - 41.0 °F 77% 29.66 in 10.0 mi SW 5.8 mph - N/A   Overcast
1:53 AM 48.9 °F - 41.0 °F 74% 29.66 in 10.0 mi SW 5.8 mph - N/A   Overcast
2:04 AM 48.2 °F - 41.0 °F 76% 29.66 in 10.0 mi SW 5.8 mph - N/A   Overcast
2:34 AM 48.2 °F - 42.8 °F 82% 29.66 in 10.0 mi WSW 5.8 mph - N/A   Overcast
2:53 AM 48.0 °F - 42.1 °F 80% 29.66 in 10.0 mi WSW 5.8 mph - 0.00 in Rain Light Rain
3:53 AM 48.0 °F - 43.0 °F 83% 29.66 in 8.0 mi SW 5.8 mph - 0.01 in Rain Light Rain
4:49 AM 48.2 °F - 44.6 °F 87% 29.67 in 6.0 mi SW 5.8 mph - 0.01 in Rain Light Rain
4:53 AM 48.0 °F - 44.1 °F 86% 29.67 in 6.0 mi WSW 5.8 mph - 0.01 in Rain Light Rain
5:19 AM 48.2 °F - 44.6 °F 87% 29.67 in 8.0 mi WSW 5.8 mph - 0.01 in Rain Light Rain
5:38 AM 48.2 °F - 44.6 °F 87% 29.67 in 8.0 mi WSW 6.9 mph - 0.01 in Rain Light Rain
5:53 AM 48.9 °F - 44.1 °F 83% 29.68 in 7.0 mi WSW 6.9 mph - 0.02 in Rain Light Rain
6:53 AM 48.0 °F - 44.1 °F 86% 29.69 in 7.0 mi WSW 5.8 mph - 0.03 in Rain Light Rain
7:39 AM 48.2 °F - 44.6 °F 87% 29.70 in 8.0 mi WSW 5.8 mph - 0.00 in Rain Light Rain
7:53 AM 48.0 °F - 44.1 °F 86% 29.71 in 8.0 mi West 5.8 mph - 0.01 in Rain Light Rain
8:23 AM 48.2 °F - 42.8 °F 82% 29.71 in 9.0 mi NW 9.2 mph 20.7 mph 0.01 in Rain Light Rain
8:53 AM 48.0 °F - 43.0 °F 83% 29.73 in 9.0 mi NNW 6.9 mph - 0.03 in Rain Light Rain
9:42 AM 48.2 °F - 41.0 °F 76% 29.75 in 10.0 mi NNW 11.5 mph - 0.01 in Rain Light Rain
9:53 AM 48.0 °F - 42.1 °F 80% 29.76 in 10.0 mi NNW 10.4 mph - 0.01 in Rain Light Rain
10:53 AM 48.0 °F - 41.0 °F 77% 29.77 in 10.0 mi NNW 10.4 mph - 0.01 in Rain Light Rain
11:30 AM 48.2 °F - 42.8 °F 82% 29.79 in 10.0 mi NNW 11.5 mph - 0.00 in   Overcast
11:40 AM 50.0 °F - 42.8 °F 76% 29.79 in 10.0 mi NNW 13.8 mph - 0.00 in   Overcast
11:53 AM 50.0 °F - 41.0 °F 71% 29.80 in 10.0 mi NNW 11.5 mph - 0.00 in   Overcast
12:53 PM 48.9 °F - 39.0 °F 69% 29.82 in 10.0 mi NW 12.7 mph - N/A   Overcast
1:53 PM 52.0 °F - 39.0 °F 61% 29.83 in 10.0 mi NW 11.5 mph - N/A   Overcast
2:45 PM 50.0 °F - 39.2 °F 66% 29.83 in 10.0 mi NW 13.8 mph - N/A   Overcast
2:53 PM 51.1 °F - 39.0 °F 63% 29.84 in 10.0 mi NNW 12.7 mph - N/A   Overcast
3:17 PM 50.0 °F - 39.2 °F 66% 29.85 in 10.0 mi NW 13.8 mph - 0.00 in Rain Light Rain
3:53 PM 48.9 °F - 41.0 °F 74% 29.87 in 10.0 mi NNW 16.1 mph - 0.00 in   Overcast
4:53 PM 48.0 °F - 39.9 °F 74% 29.91 in 10.0 mi North 10.4 mph - 0.00 in Rain Light Rain
5:19 PM 46.4 °F 41.9 °F 39.2 °F 76% 29.92 in 9.0 mi North 9.2 mph - 0.00 in Rain Light Rain
5:53 PM 46.9 °F - 39.0 °F 74% 29.94 in 10.0 mi NNE 12.7 mph - 0.00 in Rain Light Rain
6:53 PM 46.0 °F 41.9 °F 37.9 °F 73% 29.97 in 10.0 mi North 8.1 mph - 0.00 in   Overcast
7:10 PM 46.4 °F 41.9 °F 37.4 °F 71% 29.97 in 10.0 mi North 9.2 mph - N/A   Overcast
7:53 PM 45.0 °F 40.6 °F 37.0 °F 74% 30.00 in 10.0 mi North 8.1 mph - N/A   Overcast
8:18 PM 44.6 °F 40.2 °F 37.4 °F 76% 30.01 in 10.0 mi North 8.1 mph - N/A   Overcast
8:53 PM 45.0 °F 40.6 °F 37.0 °F 74% 30.03 in 10.0 mi North 8.1 mph - N/A   Overcast
9:31 PM 42.8 °F 39.3 °F 35.6 °F 76% 30.05 in 10.0 mi North 5.8 mph - N/A   Overcast
9:53 PM 43.0 °F 39.5 °F 35.1 °F 74% 30.06 in 10.0 mi North 5.8 mph - N/A   Overcast
10:53 PM 42.1 °F 36.1 °F 34.0 °F 73% 30.09 in 10.0 mi NE 10.4 mph - N/A   Mostly Cloudy
11:02 PM 41.0 °F 35.8 °F 33.8 °F 76% 30.09 in 10.0 mi NE 8.1 mph - N/A   Mostly Cloudy
11:26 PM 39.2 °F 34.2 °F 32.0 °F 75% 30.10 in 10.0 mi NNE 6.9 mph - N/A   Scattered Clouds
11:53 PM 37.9 °F 33.5 °F 30.9 °F 76% 30.11 in 10.0 mi NNE 5.8 mph - N/A   Clear